Regional Weather Roundup
Issued by NWS

Home | Current Version | Previous Version | Text Only | Print | Product List | Glossary On
Versions: 1 2 3 4 5 6 7 8 9 10 11 12 13 14 15 16 17 18 19 20 21 22 23 24 25 26 27
000
ASUS45 KBOU 280907
RWRCO

WEATHER ROUNDUP FOR COLORADO
NATIONAL WEATHER SERVICE DENVER/BOULDER CO
300 AM MDT SUN AUG 28 2016

NOTE: "FAIR" INDICATES FEW OR NO CLOUDS BELOW 12000 FEET WITH NO
SIGNIFICANT WEATHER AND/OR OBSTRUCTIONS TO VISIBILITY.

COZ001>005-013-030-031-281000-
...NORTHWEST COLORADO...

CITY           SKY/WX    TMP DP  RH WIND       PRES   REMARKS
CRAIG          FAIR      47  40  76 CALM      30.25R
HAYDEN         FAIR      50  32  50 E9        30.26R
MEEKER         FAIR      47  41  80 NE6       30.27R
MOUNT WERNER   NOT AVBL
STEAMBOAT SPGS FAIR      45  34  66 CALM      30.28S
WALDEN         FAIR      36  30  80 SE7       30.36R
$$

COZ006>008-011-281000-
...WEST CENTRAL VALLEYS...

CITY           SKY/WX    TMP DP  RH WIND       PRES   REMARKS
GRAND JUNCTION FAIR      61  47  59 SE7       30.17R
MONTROSE       CLOUDY    58  46  64 SE6       30.24F
EAGLE          MOCLDY    54  43  66 CALM      30.30R
RIFLE          FAIR      55  50  83 CALM      30.23R
DELTA          NOT AVBL
NUCLA          FAIR     N/A N/A N/A CALM      30.29S
$$

COZ017>023-064>068-281000-
...SOUTHWEST COLORADO...

CITY           SKY/WX    TMP DP  RH WIND       PRES   REMARKS
DURANGO        FAIR      45  43  93 NE3       30.28F
CORTEZ         FAIR      49  47  93 E5        30.25S
PAGOSA SPRINGS FAIR      45  44  97 CALM      30.35S
TELLURIDE      MOCLDY    46  44  94 SE3       30.42S
WOLF CREEK PAS FAIR      36  36 100 SW12      30.57S
$$

COZ009-010-012-014-032>034-037-058>063-281000-
...CENTRAL COLORADO...

CITY           SKY/WX    TMP DP  RH WIND       PRES   REMARKS
ASPEN          FAIR      45  40  82 SW7       30.34R
BUENA VISTA    FAIR      46  41  82 CALM      30.35R
COPPER MTN     FAIR      45  32  61 NW3       30.57S
BERTHOUD PASS  CLOUDY    37  25  60 N13       30.60S
COTTONWOOD PAS FAIR      52  36  54 E6        30.45R
GUNNISON       FAIR      48  43  81 N5        30.37S
KREMMLING      FAIR      41  34  75 CALM      30.34R
LEADVILLE      FAIR      38  34  85 NE5       30.44R
MONARCH PASS   FAIR      37  32  81 W7        30.66R
SALIDA         FAIR      53  43  67 W6        30.40R
SUNLIGHT       FAIR      45  37  76 CALM      30.53S
WILKERSON PASS MOCLDY    45  34  65 W3        30.55S
$$

COZ069>075-281000-
...SAN LUIS VALLEY/SANGRE DE CRISTO MOUNTAINS...

CITY           SKY/WX    TMP DP  RH WIND       PRES   REMARKS
ALAMOSA        FAIR      43  41  93 CALM      30.33R
LA VETA PASS   CLOUDY    45  37  76 S3        30.46S
SAGUACHE       FAIR      41  39  93 SE3       30.36R
$$

COZ035-036-038>040-281000-
...NORTHERN COLORADO FRONT RANGE...

CITY           SKY/WX    TMP DP  RH WIND       PRES   REMARKS
DENVER INTL AP CLOUDY    63  47  55 SW10      30.13R
DMNS CITY PARK   N/A     63  43  47 S3        30.13R
AURORA         MOCLDY    63  47  56 SW6       30.15R
FRONT RANGE AP NOT AVBL
ERIE MUNI ARPT NOT AVBL
BOULDER MUN AP FAIR      59  43  55 W3        30.12R
CENTENNIAL     MOCLDY    62  45  53 CALM      30.16R
BROOMFIELD     MOCLDY    63  37  39 W10       30.15R
FORT COLLINS   FAIR      57  43  58 N7        30.12R
LONGMONT       FAIR      56  45  67 W3        30.13R
$$

COZ041-046-047-076>085-087-088-281000-
...PIKES PEAK/PALMER DIVIDE AND SOUTHERN FOOTHILLS...

CITY           SKY/WX    TMP DP  RH WIND       PRES   REMARKS
COLO. SPRINGS  CLOUDY    62  47  57 NE5       30.20R
A. F. ACADEMY  CLOUDY    52  47  81 NE9       30.21R
SCHRIEVER AFB  NOT AVBL
ELLICOTT       NOT AVBL
FALCON         MOCLDY    59  46  60 W3        30.25R
FORT CARSON    CLOUDY    60  47  62 N6        30.17R
LIMON          FAIR      52  51  97 S5        30.17R
MONUMENT HILL  FAIR      55  45  67 SW9       30.25S
TRINIDAD       CLOUDY    62  48  60 S8        30.19R
$$

COZ042>045-048>051-090-091-281000-
...NORTHEAST COLORADO...

CITY           SKY/WX    TMP DP  RH WIND       PRES   REMARKS
GREELEY ARPT   FAIR      55  48  76 CALM      30.10R
AKRON          FAIR      57  52  83 SW6       30.11R
BURLINGTON     FAIR      65  56  72 SW15      30.10R
WRAY           NOT AVBL
STERLING       FAIR      54  48  82 CALM      30.07F
HOLYOKE        FAIR      59  55  88 SE5       30.08S FOG
FORT MORGAN    FAIR      60  49  67 W5        30.10S
$$

COZ086-089-092>099-281000-
...SOUTHEAST COLORADO...

CITY           SKY/WX    TMP DP  RH WIND       PRES   REMARKS
PUEBLO         FAIR      63  55  75 CALM      30.11R
LA JUNTA       FAIR      68  52  56 SE10      30.10R
LAMAR          FAIR      67  54  63 S14       30.08S
SPRINGFIELD      N/A     59  57  93 SE3       30.16F
$$




USA.gov is the U.S. government's official web portal to all federal, state and local government web resources and services.